Skip Page Navigation
NASA JPL Caltech
NASA Logo - Jet Propulsion Laboratory + View the NASA Portal
+ Near-Earth Object (NEO) Program
Search JPL
JPL Home Earth Solar System Stars & Galaxies Technology
JPL Solar System Dynamics
BODIES ORBITS EPHEMERIDES TOOLS PHYSICAL DATA DISCOVERY FAQ SITE MAP
JPL Small-Body Database Browser
Search: [ help ]  
178226 Rebeccalouise (2006 VP156)
Classification: Main-belt Asteroid          SPK-ID: 2178226
Ephemeris | Orbit Diagram | Orbital Elements | Physical Parameters | Discovery Circumstances ]

[ show orbit diagram ]
Orbital Elements at Epoch 2456400.5 (2013-Apr-18.0) TDB
Reference: MPO232178 (heliocentric ecliptic J2000)
 Element Value Uncertainty (1-sigma)   Units 
e 0.1190182 n/a  
a 2.4169433 n/a AU
q 2.1292831 n/a AU
i 2.15347 n/a deg
node 190.10929 n/a deg
peri 10.24591 n/a deg
M 71.82242 n/a deg
tp 2456126.6859994
(2012-Jul-18.18599940)
n/a JED
period 1372.4550109
3.76
n/a
n/a
d
yr
n 0.26230368 n/a deg/d
Q 2.7046035 n/a AU
  Orbit Determination Parameters
   # obs. used (total)      158  
   first obs. used      1998-??-??  
   last obs. used      2012-05-21  
   # oppositions      10  
   planetary ephem.      DE403  
   condition code      0  
   fit RMS      0.46  
   data source      MPC:mpu  
   producer      MPCLINUX  

Additional Information
 T_jup = 3.505 

Ephemeris | Orbit Diagram | Orbital Elements | Physical Parameters | Discovery Circumstances ]

Physical Parameter Table
Parameter Symbol Value Units Sigma Reference Notes
absolute magnitude H 16.9 mag n/a MPO232178  

178226 Rebeccalouise           Discovered 2006 Nov. 9 by by the Sloan Digital Sky Survey Linked Object Catalog team at Apache Point Observatory.
Rebecca Louise (Ramsay) Puckett (b. 1976) is the wife of discovery team member A. W. Puckett. This minor planet was discovered three days before their first wedding anniversary.
NOTE: some special characters may not display properly (any characters within {} are an attempt to place the proper accent above a character)
Reference: 20080520/MPCPages.arcLast Updated: 2008-05-22
Ephemeris | Orbit Diagram | Orbital Elements | Physical Parameters | Discovery Circumstances ]
ABOUT SSD CREDITS/AWARDS PRIVACY/COPYRIGHT GLOSSARY LINKS
FirstGov 2013-May-22 17:00 UT
(server date/time)  
NASA Home Page
Site Manager:   Donald K. Yeomans
Webmaster  Alan B. Chamberlin